Flag for Germany Weather past 2 weeks in Bad Hersfeld, Hesse, Germany

Now
34 °F

Broken clouds.


Feels Like: 25 °F
Forecast: 23 / 35 °F
Wind: 12 mph from North

Location: Fritzlar Airport

Current Time: Dec 29, 2014 at 5:37:45 PM

Latest Report: Dec 29, 2014 at 4:20 PM


Visibility: N/A

Pressure: 30.45 "Hg

Humidity: 81%

Dew point: 28 °F

Location of Bad HersfeldLocation

Historic Weather in Bad Hersfeld — Graph

°F

Bad Hersfeld temperature yesterday

Maximum temperature yesterday: 30 °F (at 6:20 PM)
Minimum temperature yesterday: 21 °F (at 6:20 AM)
Average temperature yesterday: 26 °F

Past Weeks' High & Low Weather Summary

 TemperatureHumidityPressure
High55 °F (Dec 18, 8:20 PM)100% (Dec 27, 4:20 AM)30.45 "Hg (Dec 27, 4:20 AM)
Low21 °F (Dec 28, 6:20 AM)47% (Dec 28, 1:20 PM)29.53 "Hg (Dec 27, 1:20 PM)
Average40 °F83%30.03 "Hg
* Reported Dec 14 4:20 PM — Dec 29 4:20 PM, Bad Hersfeld, Weather by CustomWeather, © 2014

Note: Actual official high and low records may vary slightly from our data, if they occured in-between our weather recording intervals... More about our weather records

Advertising

Bad Hersfeld weather history for previous 24 hours

 ConditionsComfort  
Time TempWeatherWind HumidityBarometerVisibility
4:20 PM
Dec 29
34 °FBroken clouds.12 mph81%30.45 "HgN/A
3:20 PM34 °FBroken clouds.10 mph81%30.42 "HgN/A
2:20 PM34 °FLight snow. Broken clouds.10 mph81%30.39 "HgN/A
1:20 PM34 °FBroken clouds.12 mph81%30.36 "HgN/A
12:20 PM36 °FBroken clouds.10 mph75%30.36 "HgN/A
11:20 AM36 °FScattered showers. Partly sunny.8 mph81%30.33 "HgN/A
10:20 AM30 °FBroken clouds.5 mph93%30.33 "HgN/A
9:53 AM30 °FScattered showers. Broken clouds.5 mph93%30.30 "Hg5 mi
9:20 AM30 °FPartly sunny.7 mph86%30.30 "HgN/A
8:20 AM28 °FPassing clouds.5 mph93%30.30 "HgN/A
7:55 AM28 °FLight snow. Partly cloudy.7 mph86%30.30 "Hg4 mi
7:20 AM28 °FLight snow. Passing clouds.7 mph93%30.30 "Hg4 mi
6:20 AM28 °FLight snow. Passing clouds.9 mph86%30.30 "Hg5 mi
5:20 AM28 °FLight snow. Passing clouds.7 mph86%30.30 "HgN/A
4:20 AM28 °FLight snow. Passing clouds.7 mph80%30.33 "HgN/A
3:20 AM28 °FPassing clouds.5 mph74%30.36 "HgN/A
2:20 AM28 °FPassing clouds.9 mph74%30.39 "HgN/A
1:20 AM30 °FOvercast.7 mph75%30.42 "HgN/A
12:20 AM30 °FOvercast.8 mph69%30.42 "HgN/A
11:20 PM
Dec 28
30 °FOvercast.5 mph69%30.45 "HgN/A
10:20 PM30 °FOvercast.7 mph69%30.45 "HgN/A
9:20 PM30 °FPassing clouds.3 mph69%30.42 "HgN/A
8:20 PM30 °FPassing clouds.6 mph75%30.42 "HgN/A
7:20 PM30 °FPassing clouds.5 mph75%30.42 "HgN/A
6:20 PM30 °FPassing clouds.8 mph69%30.39 "HgN/A
5:20 PM28 °FPassing clouds.2 mph74%30.36 "HgN/A
Weather by CustomWeather, © 2014

See weather overviewHow to use our weather pages